• Join FlightAware (Why Join?)
  • Login
  • US Flag 
08:50PM EST


 

Airport Tracker/Info


-or-


 

Live Flight TrackerFlight Track Log ✈ N373LD ✈ 04-Apr-2014 ✈ KMLS - KCOD

Flight Track Log - Related Links

Times and Time Zones

All times are in EDT time to prevent confusion due to time zone crossing. See the N373LD flight status page for this flight to view local times or setup timezone preferences in your user account.

Time Position Orientation Groundspeed Altitude Reporting Facility
EDT Latitude Longitude Course Direction KTS MPH feet Rate Location/Type
06:58PM 46.2736 -106.1500 230° Southwest 142 163 11,400  Level Salt Lake Center
06:59PM 46.2469 -106.1992 232° Southwest 151 174 12,800 1,320 Climbing Salt Lake Center
07:00PM 46.2208 -106.2442 230° Southwest 150 173 14,200 1,260 Climbing Salt Lake Center
07:01PM 46.1926 -106.2623 229° Southwest  Level FlightAware Approximate
07:02PM 46.1549 -106.3251 229° Southwest  Level FlightAware Approximate
07:02PM 46.1950 -106.2886 230° Southwest 148 170 15,500  Level Salt Lake Center
07:03PM 46.1208 -106.3918 234° Southwest  Level FlightAware Approximate
07:03PM 46.1667 -106.3336 228° Southwest 149 171 16,700  Level Salt Lake Center
07:04PM 46.1406 -106.3833 233° Southwest 153 176 18,200 1,260 Climbing Salt Lake Center
07:05PM 46.1131 -106.4297 229° Southwest 153 176 19,400 840 Climbing Salt Lake Center
07:06PM 46.0828 -106.4808 230° Southwest 163 188 20,000 240 Climbing Salt Lake Center
07:07PM 46.0389 -106.5547 229° Southwest 199 229 20,000  Level Salt Lake Center
07:08PM 46.0003 -106.6208 230° Southwest 212 244 20,000  Level Salt Lake Center
07:09PM 45.9608 -106.6878 230° Southwest 218 251 20,000  Level Salt Lake Center
07:10PM 45.9211 -106.7561 230° Southwest 219 252 20,000  Level Salt Lake Center
07:11PM 45.8817 -106.8211 229° Southwest 219 252 20,000  Level Salt Lake Center
07:12PM 45.8436 -106.8881 231° Southwest 219 252 20,000  Level Salt Lake Center
07:13PM 45.8031 -106.9536 228° Southwest 220 253 20,000  Level Salt Lake Center
07:14PM 45.7636 -107.0217 230° Southwest 221 254 20,000  Level Salt Lake Center
07:15PM 45.7156 -107.0983 228° Southwest 220 253 20,000  Level Salt Lake Center
07:16PM 45.6753 -107.1683 231° Southwest 223 257 20,000  Level Salt Lake Center
07:17PM 45.6339 -107.2364 229° Southwest 228 262 20,000  Level Salt Lake Center
07:18PM 45.5936 -107.3017 229° Southwest 224 258 20,000  Level Salt Lake Center
07:19PM 45.5539 -107.3683 230° Southwest 223 257 20,000  Level Salt Lake Center
07:20PM 45.5133 -107.4361 230° Southwest 223 257 20,000  Level Salt Lake Center
07:21PM 45.4731 -107.5033 230° Southwest 224 258 20,000  Level Salt Lake Center
07:22PM 45.4244 -107.5811 228° Southwest 222 255 20,000  Level Salt Lake Center
07:23PM 45.3836 -107.6481 229° Southwest 225 259 20,000  Level Salt Lake Center
07:24PM 45.3422 -107.7161 229° Southwest 226 260 20,000  Level Salt Lake Center
07:25PM 45.2978 -107.7889 229° Southwest 228 262 20,000  Level Salt Lake Center
07:26PM 45.2547 -107.8558 228° Southwest 230 265 20,000  Level Salt Lake Center
07:27PM 45.2108 -107.9300 230° Southwest 230 265 20,000  Level Salt Lake Center
07:28PM 45.1706 -107.9947 229° Southwest 227 261 20,000  Level Salt Lake Center
07:29PM 45.1297 -108.0608 229° Southwest 226 260 20,000  Level Salt Lake Center
07:30PM 45.0847 -108.1317 228° Southwest 226 260 20,000  Level Salt Lake Center
07:31PM 45.0461 -108.1983 231° Southwest 224 258 20,000  Level Salt Lake Center
07:32PM 45.0039 -108.2647 228° Southwest 224 258 20,000  Level Salt Lake Center
07:33PM 44.9614 -108.3331 229° Southwest 229 264 20,000  Level Salt Lake Center
07:34PM 44.9200 -108.3986 228° Southwest 228 262 20,000  Level Salt Lake Center
07:35PM 44.8792 -108.4622 228° Southwest 225 259 20,000  Level Salt Lake Center
07:36PM 44.8300 -108.5411 229° Southwest 223 257 20,000 -420 Level Salt Lake Center
07:37PM 44.7892 -108.6056 228° Southwest 223 257 19,200 -1,320 Descending Salt Lake Center
07:38PM 44.7489 -108.6681 228° Southwest 222 255 17,300 -1,860 Descending Salt Lake Center
07:39PM 44.7094 -108.7300 228° Southwest 219 252 15,400 -1,860 Descending Salt Lake Center
07:40PM 44.6711 -108.7911 229° Southwest 216 249 13,500 -1,920 Descending Salt Lake Center